Regional Weather Roundup
Issued by NWS

Home | Current Version | Previous Version | Graphics & Text | Print | Product List | Glossary On
Versions: 1 2 3 4 5 6 7 8 9 10 11 12 13 14 15 16 17 18 19 20 21 22 23 24 25 26 27 28 29 30 31 32 33 34 35 36 37 38 39 40 41 42 43 44 45 46 47 48 49 50
610
ASUS43 KMKX 220617
RWRWI

WISCONSIN REGIONAL WEATHER ROUNDUP
NATIONAL WEATHER SERVICE MILWAUKEE/SULLIVAN WI
100 AM CDT FRI MAY 22 2015

NOTE: "FAIR" INDICATES FEW OR NO CLOUDS BELOW 12,000 FEET WITH NO
SIGNIFICANT WEATHER AND/OR OBSTRUCTIONS TO VISIBILITY.

WIZ001-002-006>008-014>016-023>028-220700-
NORTHWEST WISCONSIN

CITY           SKY/WX    TMP DP  RH WIND       PRES   REMARKS
SUPERIOR ARPT  CLEAR     46  35  67 CALM      30.10R
ASHLAND        CLEAR     39  38  96 W5        30.10R
6HR MIN TEMP:  37; 6HR MAX TEMP:  62;

HAYWARD        CLEAR     40  33  76 CALM      30.10R
6HR MIN TEMP:  40; 6HR MAX TEMP:  67;

SIREN          CLEAR     44  35  70 CALM      30.11R
CUMBERLAND     CLEAR     46  36  66 NW6       30.09R
RICE LAKE      CLEAR     45  40  81 CALM      30.10R
CHETEK         CLEAR     46  42  85 CALM      30.08S
LADYSMITH      CLEAR     43  37  79 CALM      30.10R
EAU CLAIRE     NOT AVBL
MENOMONIE      CLEAR     51  38  61 W3        30.08R
NEW RICHMOND   CLEAR     51  36  58 CALM      30.10R
OSCEOLA        CLEAR     46  39  78 CALM      30.13R
$$

WIZ003>005-009-010-017-018-220700-
NORTH CENTRAL WISCONSIN

CITY           SKY/WX    TMP DP  RH WIND       PRES   REMARKS
MANITOWISH WTR CLEAR     35  33  94 CALM      30.08R
ARBOR VITAE    CLEAR     40  35  82 CALM      30.08R
WOODRUFF       CLEAR     40  35  82 CALM      30.08R
RHINELANDER    CLEAR     36  31  82 CALM      30.08R
6HR MIN TEMP:  36; 6HR MAX TEMP:  60;

EAGLE RIVER    CLEAR     35  31  83 CALM      30.08R
LAND O LAKES   CLEAR     42  29  59 CALM      30.10R
PHILLIPS       CLEAR     37  35  92 CALM      30.08R
TOMAHAWK       CLEAR     33  30  90 CALM      30.08R
MEDFORD        CLEAR     40  36  85 CALM      30.08R
MERRILL        CLEAR    N/A N/A N/A CALM      30.08R
$$

WIZ029-030-035-036-043>047-220700-
CENTRAL WISCONSIN

CITY           SKY/WX    TMP DP  RH WIND       PRES   REMARKS
WAUSAU         CLEAR     43  34  70 CALM      30.07R
6HR MIN TEMP:  43; 6HR MAX TEMP:  66; 6HR PCP: TRACE;

MOSINEE        CLEAR     45  34  65 CALM      30.08R
MARSHFIELD     CLEAR     47  33  58 E3        30.07R
6HR MIN TEMP:  45; 6HR MAX TEMP:  68;

STEVENS POINT  CLEAR     44  36  73 CALM      30.07R
WAUPACA        CLEAR     47  34  62 CALM      30.08R
WAUTOMA        NOT AVBL
WISC RAPIDS    CLEAR     46  35  65 CALM      30.08R
6HR MIN TEMP:  46; 6HR MAX TEMP:  71;

CAMP DOUGLAS   NOT AVBL
$$

WIZ011>013-019>022-031-037>040-048>050-220700-
NORTHEAST WISCONSIN

CITY           SKY/WX    TMP DP  RH WIND       PRES   REMARKS
ANTIGO         CLEAR     40  34  78 CALM      30.08R
SHAWANO        CLEAR     42  37  80 CALM      30.09R
OCONTO         CLEAR     36  36 100 CALM      30.08S
STURGEON BAY   CLEAR     41  27  56 CALM      30.10S
6HR MIN TEMP:  41; 6HR MAX TEMP:  55;

GREEN BAY      CLEAR     42  34  73 NE3       30.08R
6HR MIN TEMP:  41; 6HR MAX TEMP:  59; 6HR PCP: TRACE;

MANITOWOC      NOT AVBL
APPLETON       CLEAR     46  28  49 E5        30.07R
CLINTONVILLE   CLEAR     41  37  87 CALM      30.08R
OSHKOSH        CLEAR     48  31  51 SE5       30.06S
6HR MIN TEMP:  48; 6HR MAX TEMP:  69;

$$

WIZ032>034-041-042-053>061-220700-
SOUTHWEST WISCONSIN

CITY           SKY/WX    TMP DP  RH WIND       PRES   REMARKS
LA CROSSE      CLEAR     50  44  80 SE3       30.06R
6HR MIN TEMP:  49; 6HR MAX TEMP:  72;

SPARTA         CLEAR     40  38  94 CALM      30.07S
VIROQUA        CLEAR     54  37  53 CALM      30.07R
BOSCOBEL       CLEAR     45  40  82 CALM      30.07R
6HR MIN TEMP:  44; 6HR MAX TEMP:  74;

PRAIRIE DU CHI CLEAR     48  40  74 CALM      30.06R
PLATTEVILLE    CLEAR     55  37  50 W6        30.05R
$$

WIZ056-057-062-063-064-067-068-220700-
SOUTH CENTRAL WISCONSIN

CITY           SKY/WX    TMP DP  RH WIND       PRES   REMARKS
REEDSBURG      CLEAR     53  37  54 E3        30.06R
BARABOO/DELLS  CLEAR     51  39  64 NE8       30.06R
LONE ROCK      NOT AVBL
MINERAL POINT  CLEAR     55  36  47 N8        30.05R
MADISON        CLEAR     52  41  66 NE9       30.06R
6HR MIN TEMP:  51; 6HR MAX TEMP:  69;

MIDDLETON      CLEAR     56  38  50 NE10      30.05R
WATERTOWN      CLEAR     48  36  63 NE9       30.05R
MONROE         CLEAR     55  41  58 NW8       30.03R
JANESVILLE     CLEAR     54  41  62 CALM      30.01R
$$

WIZ051-052-058>065-066-070>072-220700-
SOUTHEAST WISCONSIN

CITY           SKY/WX    TMP DP  RH WIND       PRES   REMARKS
MILWAUKEE      CLEAR     47  34  60 N9        30.06R
6HR MIN TEMP:  47; 6HR MAX TEMP:  70; 6HR PCP: TRACE;

WAUKESHA       CLEAR     45  34  65 NE8       30.07R
MILWAUKEE/TIMM CLEAR     46  32  57 NE6       30.07S
RACINE         PTCLDY    47  39  74 N12       30.06R
6HR MIN TEMP:  47; 6HR MAX TEMP:  69; 6HR PCP:  0.04;

BURLINGTON     CLEAR     51  44  74 NE14      30.04R
KENOSHA        PTCLDY    49  43  80 N9        30.04R
6HR MIN TEMP:  49; 6HR MAX TEMP:  67; 6HR PCP:  0.02;

FOND DU LAC    CLEAR     46  28  49 E5        30.06F
6HR MIN TEMP:  45; 6HR MAX TEMP:  67; 6HR PCP: TRACE;

SHEBOYGAN      PTCLDY    43  33  68 CALM      30.08R
6HR MIN TEMP:  41; 6HR MAX TEMP:  62; 6HR PCP:  0.06;

WEST BEND      PTCLDY    46  30  53 CALM      30.07R
JUNEAU         CLEAR     48  31  51 NE8       30.07S
$$

LSZ147-162-220700-
LAKE SUPERIOR

STATION/POSITION TIME  TEMP    WIND        PRES    WAVE
                       AIR SEA DIR/SP/G            HT/PER
                 (UTC) (F)     (DEG/KT/KT) (MB)    (FT/S)
W MID LAKE BUOY  0450   40 36   60/  6/  6   N/A     0
DEVILS ISLAND    0500   55      10/ 15/ 15   N/A
SAXON HARBOR     0500   41     200/  2/  4   N/A
$$

LMZ867-665-643>646-220700-
LAKE MICHIGAN

STATION/POSITION TIME  TEMP    WIND        PRES    WAVE
                       AIR SEA DIR/SP/G            HT/PER
                 (UTC) (F)     (DEG/KT/KT) (MB)    (FT/S)
CHAMBERS ISLAND  0500   48     340/  4/  6   N/A
N MID LAKE BUOY  0450   41 36  290/  6/  8   N/A     1/ 4
NORTHPORT PIER   0340   49     360/  6/  9   N/A
SISTER BAY       0517   43        CALM       N/A
KEWAUNEE LAKESHO 0500           CALM  /  3   N/A
SHEBOYGAN LAKESH 0500           20/ 10/ 12   N/A
PORT WASHINGTON  0540   51      10/  4/  8   N/A
ATWATER BUOY     0500   46 44  350/ 12/ 12   N/A
MILWAUKEE LAKESH 0500   49     360/ 12/ 15   N/A
S MID LAKE BUOY  0450   44 38  270/  4/  8   N/A     1/ 3
KENOSHA   LAKESH 0500   51     350/  2/  5   N/A
$$

TC  - TEMPERATURE IN CELSIUS
VSB - VISIBILITY IN STATUTE MILES
WCI - WIND CHILL INDEX
HX  - HEAT INDEX




USA.gov is the U.S. government's official web portal to all federal, state and local government web resources and services.